Location: eljas
(40.1958°N, 6.8661°W)
Time: 19:05:11
(UTC+01:00)

Daily predictions for brighter satellites

Satellite Brightness Start Highest point End
(mag) Time Altitude Azimuth Time Altitude Azimuth Time Altitude Azimuth
Cosmos 614 Rocket 3.9 19:37:59 10° SSW 19:43:03 84° ESE 19:48:08 10° NNE
Cosmos 1484 Rocket 3.8 19:40:27 10° S 19:44:17 53° W 19:48:06 10° NNW
Cosmos 2237 4.2 19:39:43 10° NNW 19:45:28 72° ENE 19:51:09 10° SSE
COSMOS 2428 2.8 19:40:14 10° NNW 19:45:51 57° ENE 19:51:26 10° SE
Cosmos 1741 Rocket 4.0 19:40:54 10° S 19:46:05 71° ESE 19:51:17 10° NNE
Cosmos 2219 Rocket 2.9 19:41:14 10° N 19:46:15 32° ENE 19:51:15 10° ESE
Cosmos 1140 Rocket 3.9 19:41:11 10° SSW 19:46:17 69° WNW 19:51:27 10° NNE
Meteor 1-19 Rocket 4.3 19:40:56 10° N 19:46:41 74° E 19:52:28 10° SSE
Cosmos 2360 Rocket 2.8 19:42:09 10° NNW 19:47:45 65° WSW 19:53:20 10° S
USA 215 4.4 19:45:39 10° NE 19:51:36 39° NNW 19:57:31 10° W
Meteor 2-4 Rocket 3.7 19:48:05 10° N 19:53:31 59° ENE 19:58:47 10° SSE
ALOS 2.9 19:50:37 10° SE 19:54:49 34° ENE 19:59:01 10° N
Hubble Space Telescope 3.0 19:52:25 10° SSW 19:54:51 15° S 19:57:17 10° SE
COSMO-SKYMED 1 3.4 19:53:58 10° N 19:58:14 55° WNW 20:02:27 10° SSW
Cosmos 2227 Rocket 3.2 19:54:15 10° SSE 19:58:42 24° ESE 20:03:11 10° NE
Cosmos 2219 3.2 19:53:21 10° SSW 19:59:06 83° ESE 20:04:52 10° NNE
Cosmos 405 Rocket 3.9 19:58:25 10° NNE 20:01:46 24° ENE 20:05:04 10° SE
Meteor 1-23 Rocket 4.3 19:58:21 10° N 20:04:06 60° ENE 20:09:43 10° SSE
Gbstr 26 Del rocket 4.2 20:02:34 10° W 20:06:00 30° NNW 20:09:20 10° NE
H-2A R/B 3.8 20:04:00 10° SE 20:07:04 25° ENE 20:10:10 10° NNE
Cosmos 1570 Rocket 4.1 20:02:21 10° NNW 20:07:36 82° WSW 20:12:50 10° SSE
NOAA 12 4.2 20:04:58 10° SSE 20:10:18 86° WSW 20:15:41 10° NNW
CZ-2D R/B 4.5 20:08:41 11° ESE 20:11:24 21° ENE 20:14:21 10° NNE
SJ-6B 2.7 20:08:11 10° SSE 20:12:08 73° ENE 20:16:00 10° N
SL-16 R/B 3.8 20:10:01 10° NNE 20:13:23 16° NE 20:15:19 14° ENE
Spot 2 Rocket 3.9 20:10:49 10° SE 20:15:32 41° ENE 20:20:18 10° N
Resurs 01 Rocket 2.0 20:12:45 10° SE 20:16:52 41° ENE 20:21:01 10° N
Atlas Centaur 2 4.2 20:12:28 10° SSW 20:18:07 22° SSE 20:22:23 13° ESE
GEOS 3 Rocket 4.4 20:16:55 10° ENE 20:21:30 30° ESE 20:26:07 10° S
Cosmos 2074 Rocket 3.9 20:15:56 10° S 20:22:10 78° E 20:28:28 10° N
ATLAS CENTAUR R/B 1.9 20:17:51 10° SSW 20:22:12 37° SE 20:23:11 26° E
Resurs 1-3 4.0 20:18:53 10° SE 20:22:58 40° ENE 20:27:04 10° N
Cosmos 1025 Rocket 3.0 20:20:16 10° N 20:24:41 86° E 20:29:05 10° S
Okean 1 Rocket 4.2 20:21:18 10° SSW 20:25:37 48° W 20:29:58 10° N
Cosmos 1441 Rocket 4.4 20:25:12 10° NNE 20:28:24 23° ENE 20:28:32 23° ENE
FENGYUN 3A 3.6 20:23:19 10° SSE 20:28:41 74° ENE 20:34:07 10° N
Cosmos 1892 Rocket 3.7 20:25:27 10° N 20:29:42 49° E 20:33:57 10° SSE
Cosmos 2184 Rocket 4.0 20:24:20 10° S 20:30:39 87° E 20:36:55 10° N
NOSS 0 Rocket 3.9 20:24:55 10° NNW 20:31:02 62° ENE 20:37:05 10° SE
Cosmos 1814 Rocket 4.2 20:26:45 10° N 20:31:41 45° ENE 20:35:40 15° SE
Envisat 4.2 20:31:53 20° ENE 20:32:21 21° ENE 20:36:02 10° NNE
BREEZE-M DEB (TANK) 3.6 20:31:46 10° NW 20:35:04 67° NNE 20:41:15 19° ESE
Cosmos 1980 3.8 20:31:03 10° NNW 20:36:36 53° ENE 20:40:58 16° SE
Cosmos 2333 Rocket 2.2 20:33:51 10° NNW 20:39:37 70° ENE 20:45:21 10° SSE
GPS 2-04 Rocket1 3.6 20:40:20 10° WSW 20:44:22 43° S 20:46:03 29° SE
Okean 2 3.4 20:40:28 10° N 20:44:40 82° W 20:48:50 10° S
SL-19 R/B 4.4 20:40:58 10° SSE 20:46:42 85° ENE 20:52:55 10° NNW
USA 32 4.5 20:42:49 10° NNE 20:47:38 37° E 20:49:14 30° ESE
Nadezhda 3 Rocket 4.0 20:42:00 10° N 20:48:05 58° E 20:54:11 10° SSE
Cosmos 1544 Rocket 3.4 20:47:04 10° S 20:51:23 80° E 20:55:43 10° N
Abrixas rocket 4.0 20:50:28 10° WNW 20:53:19 25° NNW 20:54:21 21° NNE
Helios 1B rocket 2.4 20:53:45 10° NNE 20:57:51 56° E 21:01:55 10° S
OTV 4 1.2 20:55:32 10° WSW 20:57:59 44° SSW 20:57:59 44° SSW
Cosmos 2154 Rocket 3.9 20:54:05 10° S 21:00:25 79° E 21:06:45 10° N
Cosmos 2341 Rocket 4.0 20:55:50 10° S 21:02:04 60° E 21:08:20 10° NNE
Cosmos 2082 3.6 20:56:28 10° SSW 21:02:10 75° ESE 21:07:54 10° NNE
Cosmos 1486 Rocket 3.9 20:57:53 10° SSW 21:03:12 76° ESE 21:08:31 10° NNE
Helios 1A 2.8 21:02:59 48° SE 21:04:01 71° ENE 21:08:10 10° N
Cosmos 1975 2.7 21:03:59 10° S 21:08:01 83° E 21:12:06 10° N
USA 186 4.5 21:10:55 10° N 21:10:55 10° N 21:10:55 10° N
Cosmos 841 Rocket 3.5 21:04:29 10° N 21:09:34 56° ENE 21:10:10 53° E
Cosmos 1626 Rocket 4.3 21:07:26 10° N 21:10:35 38° NNE 21:10:35 38° NNE
Cosmos 1500 4.4 21:08:56 10° S 21:15:15 20° N 21:16:31 10° N
Meteor 2-8 Rocket 4.3 21:10:01 10° N 21:16:03 63° E 21:18:15 39° SE
Meteor 2-19 Rocket 4.4 21:10:31 10° SSE 21:16:28 55° E 21:22:27 10° NNE
Spot 1 4.0 21:16:12 50° S 21:17:12 78° WSW 21:21:26 10° NNW
Cosmos 1437 3.8 21:14:28 10° NNW 21:17:37 45° W 21:17:48 44° WSW
Cosmos 1763 Rocket 3.3 21:13:22 10° NNW 21:18:33 84° ENE 21:19:54 51° SSE
Cosmos 1515 4.1 21:15:47 10° NNW 21:19:36 62° W 21:20:20 50° SW
Cosmos 2237 Rocket 2.3 21:15:15 10° NNW 21:20:57 74° WSW 21:24:00 28° S
Cosmos 2297 Rocket 2.1 21:15:48 10° SSW 21:21:28 88° WNW 21:27:09 10° NNE
Cosmos 962 Rocket 4.4 21:21:20 10° S 21:27:31 86° W 21:33:41 10° N
Cosmos 1066 Rocket 4.0 21:22:43 10° N 21:28:21 89° E 21:30:00 47° S
Cosmos 1455 Rocket 4.0 21:24:27 10° SSW 21:28:40 47° W 21:32:53 10° N
Cosmos 2219 Rocket 3.7 21:25:08 10° NW 21:30:10 35° WSW 21:35:11 10° SSW
Cosmos 332 Rocket 3.7 21:26:47 10° NNW 21:31:42 84° WSW 21:31:45 83° SW
Hubble Space Telescope 3.3 21:33:05 10° SW 21:34:08 13° SSW 21:34:08 13° SSW
OAO 3 Rocket 4.2 21:31:12 10° WSW 21:34:50 37° SSW 21:34:50 37° SSW
Cosmos 371 Rocket 3.6 21:35:39 10° NNW 21:39:37 59° NNW 21:39:37 59° NNW
NOSS 3-1 (A) 4.0 21:33:35 10° NW 21:41:19 88° SW 21:44:03 48° SSE
Cosmos 2227 Rocket 3.2 21:37:01 10° SW 21:42:25 45° WNW 21:47:52 10° NNE
ATLAS 2AS CENTAUR R/B 3.7 21:39:29 10° NNW 21:46:53 37° NE 21:46:55 37° NE
Resurs 01 Rocket 4.3 21:50:36 10° SW 21:53:31 17° W 21:56:26 10° NW
SL-16 R/B 2.5 21:52:32 10° NNW 21:57:15 62° NNW 21:57:15 62° NNW
GEOS 3 Rocket 4.5 21:58:02 36° N 21:59:37 47° NW 22:04:39 10° WSW
Atlas Centaur 2 3.9 22:00:40 10° SW 22:05:03 28° SSW 22:05:03 28° SSW
SL-8 Rocket 4.3 22:09:44 61° WSW 22:10:24 66° W 22:16:43 10° N
Envisat 4.1 22:12:05 41° WNW 22:12:05 41° WNW 22:15:55 10° NNW
ATLAS 2AS CENTAUR R/B 4.5 23:30:30 10° NW 23:34:22 30° NW 23:34:22 30° NW
